Other Surface Observations
Issued by NWS Charleston, SC

Home | Current Version | Previous Version | Text Only | Print | Product List | Glossary On
Versions: 1 2 3 4 5 6 7 8 9 10 11 12 13 14 15 16 17 18 19 20 21 22 23 24 25 26 27 28 29 30 31 32 33 34 35 36 37 38 39 40 41 42 43 44 45 46 47 48 49 50
000
SXUS52 KCHS 172127
OSOCHS

MARINE OBSERVATIONS
NATIONAL WEATHER SERVICE CHARLESTON SC
500 PM EDT THU AUG 17 2017

...DOWNTOWN CHARLESTON AND HARBOR...

CITY           SKY/WX    TMP DP  RH WIND       PRES   REMARKS
WATERFRONT PRK   N/A    N/A N/A N/A VRB2      29.83S

...LAKE MOULTRIE...

CITY           SKY/WX    TMP DP  RH WIND       PRES   REMARKS
PINOPOLIS        N/A     81  77  89 SE5       29.92R

...LAKE AND SUPPLEMENTAL COASTAL OBSERVATIONS...

STATION/POSITION TIME  TEMP    WIND        PRES    WAVE   SWELL
                       AIR SEA DIR/SP/G            HT/PER HT/PER/DIR
                 (UTC) (F)     (DEG/KT/KT) (MB)    (FT/S) (FT/S/D)
FORT PULASKI     2100   87 86  220/ 10/ 14 1015.4
SAPELO ISLAND    2100   88     200/  3     1015.0
WINYAH BAY       2045   85     230/ 11     1015.0S
LAKE MURRAY      2120   93     200/  7/  8 1012.9
ACE BASIN NERRS  2045   91     160/  1     1014.0F


...C-MAN AND BUOY OBSERVATIONS...

STATION/POSITION TIME  TEMP    WIND        PRES    WAVE   SWELL
                       AIR SEA DIR/SP/G            HT/PER HT/PER/DIR
                 (UTC) (F)     (DEG/KT/KT) (MB)    (FT/S) (FT/S/D)
BUOY 41004       2110   85 86  210/  8/ 10 1014.5
BUOY 41008       2050   87 88  160/  8/  8 1015.1F   1/ 9
FOLLY BEACH CMAN 2100   87     180/  3/  5 1015.4F
CAPERS NS BUOY   2108   81 86   10/  4/  8 1014.6F
FRIPP NS BUOY    2108   88     200/ 10/ 12 1014.4F
5E ST. MARYS GA  2100      86                N/A     1/ 9


STATION/POSITION TIME  TEMP    WIND        PRES    WAVE   SWELL
                       AIR SEA DIR/SP/G            HT/PER HT/PER/DIR
                 (UTC) (F)     (DEG/KT/KT) (MB)    (FT/S) (FT/S/D)
FRYING PAN BUOY  2110   85 85  180/  8/ 10 1014.8
BUOY 41025       2050   83 87  170/  6/  8 1015.7F   2/ 8   2/ 80/ 8
CAPE LOOKOUT NC  2100   84     160/  7/  8 1015.4F
BUOY 41002       2050   85 85  280/  6/  8 1016.1F   2/ 4   2/260/ 4
BUOY 41010       2110   86 87  240/  4/  6 1016.4
ST AUGUSTINE FL  2100   85 82   CALM  /  1 1016.9S

$$




USA.gov is the U.S. government's official web portal to all federal, state and local government web resources and services.